| time (UTC) | temp C | wind direction | speed KPH | gust KPH | rain 1hr cm | rain 24hr cm | rain mn cm | humidity % | barometer mb |
| 20260507080013 | 11 | 240 | 0.0 | 4.8 | 0.00 | 1.30 | 0.30 | 90 | 1017.3 |
| 20260507074522 | 11 | 240 | 1.6 | 8.0 | 0.00 | 1.30 | 0.30 | 90 | 1017.3 |
| 20260507073007 | 11 | 248 | 1.6 | 8.0 | 0.00 | 1.30 | 0.30 | 90 | 1017.2 |
| 20260507071504 | 10 | 239 | 1.6 | 6.4 | 0.00 | 1.30 | 0.30 | 90 | 1017.1 |
| 20260507070004 | 10 | 240 | 3.2 | 6.4 | 0.00 | 1.30 | 0.30 | 91 | 1017.0 |
| 20260507064600 | 10 | 253 | 3.2 | 8.0 | 0.00 | 1.30 | 0.30 | 91 | 1016.8 |
| 20260507063058 | 10 | 252 | 0.0 | 6.4 | 0.00 | 1.30 | 0.30 | 92 | 1016.9 |
| 20260507061554 | 10 | 251 | 1.6 | 4.8 | 0.03 | 1.30 | 0.30 | 92 | 1016.7 |
| 20260507060053 | 10 | 246 | 0.0 | 4.8 | 0.03 | 1.30 | 0.30 | 92 | 1016.6 |
| 20260507054628 | 10 | 250 | 0.0 | 6.4 | 0.03 | 1.30 | 0.30 | 92 | 1016.5 |
| 20260507053052 | 10 | 248 | 1.6 | 6.4 | 0.03 | 1.30 | 0.30 | 93 | 1016.3 |
| 20260507051547 | 10 | 240 | 1.6 | 8.0 | 0.00 | 1.27 | 0.28 | 92 | 1016.1 |
| 20260507050053 | 10 | 248 | 1.6 | 6.4 | 0.00 | 1.27 | 0.28 | 92 | 1016.1 |
| 20260507044549 | 10 | 252 | 1.6 | 8.0 | 0.00 | 1.27 | 0.28 | 92 | 1015.6 |
| 20260507043045 | 10 | 253 | 1.6 | 6.4 | 0.00 | 1.27 | 0.28 | 92 | 1015.6 |
| 20260507041545 | 10 | 236 | 1.6 | 8.0 | 0.00 | 1.27 | 0.28 | 93 | 1015.5 |
| 20260507040044 | 9 | 241 | 3.2 | 6.4 | 0.03 | 1.27 | 0.28 | 93 | 1015.4 |
| 20260507034542 | 9 | 259 | 1.6 | 8.0 | 0.03 | 1.27 | 0.28 | 93 | 1015.4 |
| 20260507033044 | 9 | 253 | 1.6 | 8.0 | 0.03 | 1.27 | 0.28 | 93 | 1015.3 |
| 20260507031546 | 9 | 242 | 3.2 | 8.0 | 0.03 | 1.27 | 0.28 | 93 | 1015.2 |
| 20260507030048 | 9 | 259 | 1.6 | 6.4 | 0.00 | 1.27 | 0.25 | 93 | 1015.2 |
| 20260507024541 | 9 | 247 | 1.6 | 9.7 | 0.00 | 1.27 | 0.25 | 93 | 1015.1 |
| 20260507023035 | 9 | 237 | 6.4 | 12.9 | 0.03 | 1.27 | 0.25 | 94 | 1015.2 |
| 20260507021535 | 9 | 289 | 4.8 | 11.3 | 0.05 | 1.27 | 0.25 | 94 | 1015.1 |
| 20260507020032 | 9 | 247 | 3.2 | 9.7 | 0.08 | 1.27 | 0.25 | 94 | 1014.9 |
| 20260507014542 | 9 | 236 | 4.8 | 12.9 | 0.13 | 1.27 | 0.25 | 94 | 1014.9 |
| 20260507013028 | 9 | 250 | 4.8 | 12.9 | 0.15 | 1.24 | 0.23 | 93 | 1014.7 |
| 20260507011528 | 9 | 263 | 1.6 | 8.0 | 0.13 | 1.19 | 0.20 | 93 | 1014.7 |
| 20260507010027 | 9 | 243 | 3.2 | 6.4 | 0.13 | 1.17 | 0.18 | 93 | 1014.7 |
| 20260507004524 | 9 | 257 | 1.6 | 6.4 | 0.05 | 1.12 | 0.13 | 92 | 1014.7 |
| 20260507003022 | 9 | 240 | 1.6 | 8.0 | 0.05 | 1.09 | 0.10 | 91 | 1014.6 |
| 20260507001526 | 10 | 282 | 1.6 | 4.8 | 0.05 | 1.09 | 0.08 | 90 | 1014.6 |
| 20260507000031 | 10 | 247 | 1.6 | 6.4 | 0.03 | 1.07 | 0.05 | 90 | 1014.6 |
| 20260506234517 | 10 | 240 | 4.8 | 9.7 | 0.03 | 1.07 | 0.05 | 89 | 1014.6 |
| 20260506233017 | 10 | 238 | 3.2 | 11.3 | 0.03 | 1.07 | 0.05 | 89 | 1014.7 |
| 20260506231514 | 10 | 255 | 1.6 | 8.0 | 0.03 | 1.04 | 0.05 | 89 | 1014.6 |
| 20260506230013 | 10 | 263 | 1.6 | 9.7 | 0.05 | 1.04 | 0.05 | 89 | 1014.6 |
| 20260506224512 | 10 | 269 | 0.0 | 6.4 | 0.05 | 1.04 | 0.05 | 89 | 1014.6 |
| 20260506223010 | 10 | 249 | 1.6 | 8.0 | 0.05 | 1.04 | 0.05 | 89 | 1014.5 |
| 20260506221509 | 10 | 249 | 0.0 | 6.4 | 0.03 | 1.02 | 0.03 | 89 | 1014.5 |
| 20260506220016 | 10 | 242 | 1.6 | 4.8 | 0.00 | 0.99 | 0.00 | 89 | 1014.4 |
| 20260506214506 | 10 | 249 | 1.6 | 8.0 | 0.00 | 0.99 | 0.99 | 89 | 1014.4 |
| 20260506213005 | 10 | 247 | 3.2 | 9.7 | 0.00 | 0.99 | 0.99 | 88 | 1014.3 |
| 20260506211508 | 10 | 261 | 1.6 | 6.4 | 0.00 | 0.99 | 0.99 | 88 | 1014.2 |
| 20260506210007 | 10 | 259 | 1.6 | 8.0 | 0.00 | 0.99 | 0.99 | 88 | 1014.0 |
| 20260506204501 | 10 | 253 | 1.6 | 8.0 | 0.03 | 0.99 | 0.99 | 89 | 1014.0 |
| 20260506203100 | 10 | 224 | 1.6 | 6.4 | 0.05 | 0.99 | 0.99 | 91 | 1013.8 |
| 20260506201557 | 10 | 253 | 4.8 | 9.7 | 0.05 | 0.99 | 0.99 | 91 | 1013.7 |
| 20260506200056 | 10 | 236 | 1.6 | 8.0 | 0.05 | 0.99 | 0.99 | 91 | 1013.5 |
| 20260506194614 | 10 | 239 | 3.2 | 8.0 | 0.05 | 0.99 | 0.99 | 90 | 1013.4 |
| 20260506193103 | 10 | 245 | 0.0 | 3.2 | 0.05 | 0.97 | 0.97 | 91 | 1013.4 |
| 20260506191551 | 10 | 254 | 0.0 | 1.6 | 0.08 | 0.97 | 0.97 | 91 | 1013.0 |
| 20260506190050 | 10 | 250 | 0.0 | 4.8 | 0.10 | 0.94 | 0.94 | 90 | 1012.7 |
| 20260506184548 | 10 | 225 | 0.0 | 3.2 | 0.13 | 0.91 | 0.91 | 91 | 1012.7 |
| 20260506183048 | 10 | 248 | 0.0 | 4.8 | 0.15 | 0.89 | 0.89 | 91 | 1012.7 |
| 20260506181546 | 10 | 257 | 0.0 | 3.2 | 0.15 | 0.89 | 0.89 | 91 | 1012.6 |
| 20260506180058 | 10 | 243 | 1.6 | 6.4 | 0.13 | 0.84 | 0.84 | 91 | 1012.5 |
| 20260506174545 | 10 | 241 | 3.2 | 8.0 | 0.13 | 1.17 | 0.79 | 91 | 1012.3 |
| 20260506173043 | 11 | 243 | 3.2 | 9.7 | 0.13 | 1.14 | 0.76 | 91 | 1012.1 |
| 20260506171541 | 11 | 244 | 3.2 | 8.0 | 0.15 | 1.12 | 0.71 | 91 | 1011.9 |
| 20260506170048 | 11 | 259 | 1.6 | 8.0 | 0.15 | 1.09 | 0.71 | 91 | 1011.8 |
| 20260506164538 | 11 | 239 | 4.8 | 6.4 | 0.15 | 1.07 | 0.69 | 90 | 1011.8 |
| 20260506163056 | 11 | 245 | 3.2 | 6.4 | 0.15 | 1.02 | 0.64 | 90 | 1011.7 |
| 20260506161536 | 11 | 244 | 1.6 | 8.0 | 0.10 | 0.97 | 0.58 | 90 | 1011.7 |
| 20260506160036 | 11 | 254 | 1.6 | 9.7 | 0.10 | 0.94 | 0.56 | 90 | 1011.6 |
| 20260506154541 | 11 | 266 | 0.0 | 6.4 | 0.05 | 0.89 | 0.51 | 91 | 1011.5 |
| 20260506153036 | 11 | 269 | 0.0 | 8.0 | 0.05 | 0.86 | 0.48 | 90 | 1011.4 |
| 20260506151532 | 11 | 84 | 0.0 | 6.4 | 0.05 | 0.84 | 0.46 | 90 | 1011.3 |
| 20260506150031 | 11 | 243 | 1.6 | 4.8 | 0.05 | 0.84 | 0.46 | 90 | 1011.2 |
| 20260506144530 | 11 | 237 | 3.2 | 11.3 | 0.05 | 0.94 | 0.46 | 89 | 1011.2 |
| 20260506143040 | 11 | 261 | 3.2 | 11.3 | 0.08 | 0.91 | 0.43 | 89 | 1011.3 |
| 20260506141534 | 11 | 248 | 1.6 | 9.7 | 0.08 | 0.89 | 0.43 | 89 | 1011.3 |
| 20260506140029 | 11 | 238 | 4.8 | 12.9 | 0.10 | 0.89 | 0.43 | 88 | 1011.3 |
| 20260506134528 | 11 | 234 | 6.4 | 11.3 | 0.10 | 1.07 | 0.41 | 89 | 1011.1 |
| 20260506133028 | 11 | 251 | 4.8 | 12.9 | 0.08 | 1.02 | 0.36 | 91 | 1011.0 |
| 20260506131529 | 11 | 226 | 4.8 | 16.1 | 0.05 | 0.99 | 0.33 | 90 | 1011.1 |
| 20260506130027 | 11 | 287 | 1.6 | 12.9 | 0.05 | 0.99 | 0.33 | 91 | 1011.0 |
| 20260506124525 | 11 | 233 | 3.2 | 11.3 | 0.05 | 0.97 | 0.30 | 91 | 1010.8 |
| 20260506123026 | 12 | 240 | 1.6 | 12.9 | 0.15 | 0.94 | 0.28 | 91 | 1010.6 |
| 20260506121523 | 12 | 240 | 3.2 | 12.9 | 0.20 | 0.94 | 0.28 | 92 | 1010.4 |
| 20260506120026 | 12 | 244 | 4.8 | 20.9 | 0.23 | 0.91 | 0.25 | 91 | 1010.1 |
| 20260506114529 | 12 | 255 | 1.6 | 6.4 | 0.20 | 0.89 | 0.23 | 93 | 1010.1 |
| 20260506113023 | 12 | 247 | 1.6 | 11.3 | 0.15 | 0.79 | 0.15 | 92 | 1010.1 |
| 20260506111520 | 13 | 256 | 3.2 | 8.0 | 0.08 | 0.71 | 0.08 | 90 | 1010.0 |
| 20260506110019 | 13 | 269 | 4.8 | 8.0 | 0.05 | 0.71 | 0.05 | 89 | 1009.9 |
| 20260506104518 | 13 | 230 | 1.6 | 6.4 | 0.03 | 0.69 | 0.03 | 88 | 1009.9 |
| 20260506103018 | 13 | 242 | 1.6 | 8.0 | 0.00 | 0.66 | 0.00 | 85 | 1009.7 |
| 20260506101518 | 13 | 244 | 1.6 | 6.4 | 0.00 | 0.66 | 0.00 | 83 | 1009.6 |
| 20260506100017 | 13 | 250 | 1.6 | 6.4 | 0.00 | 0.66 | 0.00 | 82 | 1009.4 |
| 20260506094515 | 13 | 231 | 0.0 | 9.7 | 0.00 | 0.66 | 0.00 | 84 | 1009.4 |
| 20260506093016 | 13 | 246 | 3.2 | 8.0 | 0.00 | 0.66 | 0.00 | 83 | 1009.4 |
| 20260506091515 | 13 | 243 | 4.8 | 11.3 | 0.00 | 0.66 | 0.00 | 82 | 1009.3 |
| 20260506090016 | 13 | 237 | 3.2 | 9.7 | 0.00 | 0.66 | 0.00 | 82 | 1009.3 |
| 20260506084513 | 13 | 236 | 3.2 | 12.9 | 0.00 | 0.69 | 0.00 | 81 | 1009.2 |
| 20260506083013 | 14 | 249 | 3.2 | 11.3 | 0.00 | 0.69 | 0.00 | 80 | 1009.0 |
| 20260506081512 | 14 | 237 | 3.2 | 12.9 | 0.00 | 0.69 | 0.00 | 80 | 1008.9 |